Tracking 22873 objects as of 23-Apr-2021
HD Live streaming from Space Station
objects crossing your sky now

GORIZONT 31

Track GORIZONT 31 now!
GORIZONT 31 is classified as:


NORAD ID: 23775
Int'l Code: 1996-005A
Perigee: 35,833.6 km
Apogee: 35,966.0 km
Inclination: 14.5 °
Period: 1,441.5 minutes
Semi major axis: 42270 km
RCS: 12.5892 m2 (large)
Launch date: January 25, 1996
Source: Commonwealth of Independent States (former USSR) (CIS)
Launch site: TYURATAM MISSILE AND SPACE COMPLEX (TTMTR)

Telecommunications; telephone and television communications to the Russian republic.
aabbcc
Your satellite tracking list
Your tracking list is empty




NASA's NSSDC Master Catalog

Two Line Element Set (TLE):
1 23775U 96005A   21112.41401994  .00000073  00000-0  00000-0 0  9993
2 23775  14.5179   8.9708 0015658 190.0353   0.2683  0.99894715 92250
Source of the keplerian elements: AFSPC